User: anonymous   Login
Location: Caltech
(34.1382°N, 118.1253°W)
Time: 15:00:20
(UTC-07:00)
Language:

CZ-2C R/B - Orbit

View from above orbital plane
View from above orbital plane
View from above satellite
View from above satellite

Ground track
Ground track

The orbit data is extracted from the following two-line orbital elements,

1 28480U 04046B   16207.24350440  .00000037  00000-0  28934-4 0  9994
2 28480  98.1859 318.6402 0143339 109.3272 281.4500 14.25601676607657
Epoch (UTC): 25 July 2016 05:50:38
Eccentricity: 0.0143339
inclination: 98.1859°
perigee height: 703 km
apogee height: 909 km
right ascension of ascending node: 318.6402°
argument of perigee: 109.3272°
revolutions per day: 14.25601676
mean anomaly at epoch: 281.4500°
orbit number at epoch: 60765

The dashed part of the orbit path shows where the satellite is in the earth's shadow,  

DLR